Year,Month,Day,Hour,Minute,Value (Times are PST for temperature in C)
2017,01,12,00,00,-4.20
2017,01,12,00,01,-4.20
2017,01,12,00,02,-4.10
2017,01,12,00,03,-4.10
2017,01,12,00,04,-4.10
2017,01,12,00,05,-4.10
2017,01,12,00,06,-4.00
2017,01,12,00,07,-4.00
2017,01,12,00,08,-4.00
2017,01,12,00,09,-4.10
2017,01,12,00,10,-4.10
2017,01,12,00,11,-4.20
2017,01,12,00,12,-4.20
2017,01,12,00,13,-4.30
2017,01,12,00,14,-4.40
2017,01,12,00,15,-4.40
2017,01,12,00,16,-4.50
2017,01,12,00,17,-4.50
2017,01,12,00,18,-4.50
2017,01,12,00,19,-4.50
2017,01,12,00,20,-4.60
2017,01,12,00,21,-4.60
2017,01,12,00,22,-4.60
2017,01,12,00,23,-4.60
2017,01,12,00,24,-4.60
2017,01,12,00,25,-4.60
2017,01,12,00,26,-4.60
2017,01,12,00,27,-4.50
2017,01,12,00,28,-4.50
2017,01,12,00,29,-4.50
2017,01,12,00,30,-4.50
2017,01,12,00,31,-4.50
2017,01,12,00,32,-4.50
2017,01,12,00,33,-4.40
2017,01,12,00,34,-4.40
2017,01,12,00,35,-4.40
2017,01,12,00,36,-4.30
2017,01,12,00,37,-4.30
2017,01,12,00,38,-4.30
2017,01,12,00,39,-4.30
2017,01,12,00,40,-4.30
2017,01,12,00,41,-4.30
2017,01,12,00,42,-4.30
2017,01,12,00,43,-4.30
2017,01,12,00,44,-4.30
2017,01,12,00,45,-4.30
2017,01,12,00,46,-4.30
2017,01,12,00,47,-4.30
2017,01,12,00,48,-4.30
2017,01,12,00,49,-4.40
2017,01,12,00,50,-4.40
2017,01,12,00,51,-4.30
2017,01,12,00,52,-4.30
2017,01,12,00,53,-4.30
2017,01,12,00,54,-4.30
2017,01,12,00,55,-4.30
2017,01,12,00,56,-4.30
2017,01,12,00,57,-4.30
2017,01,12,00,58,-4.30
2017,01,12,00,59,-4.30
2017,01,12,01,00,-4.30
2017,01,12,01,01,-4.30
2017,01,12,01,02,-4.30
2017,01,12,01,03,-4.30
2017,01,12,01,04,-4.30
2017,01,12,01,05,-4.30
2017,01,12,01,06,-4.20
2017,01,12,01,07,-4.30
2017,01,12,01,08,-4.30
2017,01,12,01,09,-4.30
2017,01,12,01,10,-4.30
2017,01,12,01,11,-4.30
2017,01,12,01,12,-4.30
2017,01,12,01,13,-4.30
2017,01,12,01,14,-4.20
2017,01,12,01,15,-4.20
2017,01,12,01,16,-4.20
2017,01,12,01,17,-4.20
2017,01,12,01,18,-4.30
2017,01,12,01,19,-4.30
2017,01,12,01,20,-4.30
2017,01,12,01,21,-4.30
2017,01,12,01,22,-4.30
2017,01,12,01,23,-4.30
2017,01,12,01,24,-4.30
2017,01,12,01,25,-4.30
2017,01,12,01,26,-4.30
2017,01,12,01,27,-4.30
2017,01,12,01,28,-4.30
2017,01,12,01,29,-4.30
2017,01,12,01,30,-4.30
2017,01,12,01,31,-4.30
2017,01,12,01,32,-4.30
2017,01,12,01,33,-4.30
2017,01,12,01,34,-4.30
2017,01,12,01,35,-4.20
2017,01,12,01,36,-4.20
2017,01,12,01,37,-4.20
2017,01,12,01,38,-4.20
2017,01,12,01,39,-4.10
2017,01,12,01,40,-4.10
2017,01,12,01,41,-4.10
2017,01,12,01,42,-4.20
2017,01,12,01,43,-4.20
2017,01,12,01,44,-4.20
2017,01,12,01,45,-4.30
2017,01,12,01,46,-4.40
2017,01,12,01,47,-4.40
2017,01,12,01,48,-4.50
2017,01,12,01,49,-4.50
2017,01,12,01,50,-4.50
2017,01,12,01,51,-4.50
2017,01,12,01,52,-4.50
2017,01,12,01,53,-4.50
2017,01,12,01,54,-4.50
2017,01,12,01,55,-4.50
2017,01,12,01,56,-4.50
2017,01,12,01,57,-4.50
2017,01,12,01,58,-4.50
2017,01,12,01,59,-4.50
2017,01,12,02,00,-4.50
2017,01,12,02,01,-4.50
2017,01,12,02,02,-4.50
2017,01,12,02,03,-4.50
2017,01,12,02,04,-4.50
2017,01,12,02,05,-4.60
2017,01,12,02,06,-4.60
2017,01,12,02,07,-4.50
2017,01,12,02,08,-4.50
2017,01,12,02,09,-4.50
2017,01,12,02,10,-4.50
2017,01,12,02,11,-4.60
2017,01,12,02,12,-4.60
2017,01,12,02,13,-4.60
2017,01,12,02,14,-4.70
2017,01,12,02,15,-4.70
2017,01,12,02,16,-4.60
2017,01,12,02,17,-4.60
2017,01,12,02,18,-4.70
2017,01,12,02,19,-4.60
2017,01,12,02,20,-4.60
2017,01,12,02,21,-4.60
2017,01,12,02,22,-4.60
2017,01,12,02,23,-4.60
2017,01,12,02,24,-4.60
2017,01,12,02,25,-4.60
2017,01,12,02,26,-4.60
2017,01,12,02,27,-4.60
2017,01,12,02,28,-4.60
2017,01,12,02,29,-4.60
2017,01,12,02,30,-4.60
2017,01,12,02,31,-4.60
2017,01,12,02,32,-4.60
2017,01,12,02,33,-4.60
2017,01,12,02,34,-4.50
2017,01,12,02,35,-4.50
2017,01,12,02,36,-4.50
2017,01,12,02,37,-4.40
2017,01,12,02,38,-4.40
2017,01,12,02,39,-4.50
2017,01,12,02,40,-4.50
2017,01,12,02,41,-4.50
2017,01,12,02,42,-4.50
2017,01,12,02,43,-4.60
2017,01,12,02,44,-4.50
2017,01,12,02,45,-4.50
2017,01,12,02,46,-4.50
2017,01,12,02,47,-4.50
2017,01,12,02,48,-4.50
2017,01,12,02,49,-4.60
2017,01,12,02,50,-4.60
2017,01,12,02,51,-4.60
2017,01,12,02,52,-4.60
2017,01,12,02,53,-4.70
2017,01,12,02,54,-4.70
2017,01,12,02,55,-4.70
2017,01,12,02,56,-4.70
2017,01,12,02,57,-4.70
2017,01,12,02,58,-4.70
2017,01,12,02,59,-4.60
2017,01,12,03,00,-4.60
2017,01,12,03,01,-4.60
2017,01,12,03,02,-4.60
2017,01,12,03,03,-4.60
2017,01,12,03,04,-4.60
2017,01,12,03,05,-4.60
2017,01,12,03,06,-4.50
2017,01,12,03,07,-4.60
2017,01,12,03,08,-4.60
2017,01,12,03,09,-4.60
2017,01,12,03,10,-4.60
2017,01,12,03,11,-4.60
2017,01,12,03,12,-4.70
2017,01,12,03,13,-4.70
2017,01,12,03,14,-4.70
2017,01,12,03,15,-4.70
2017,01,12,03,16,-4.70
2017,01,12,03,17,-4.70
2017,01,12,03,18,-4.70
2017,01,12,03,19,-4.70
2017,01,12,03,20,-4.70
2017,01,12,03,21,-4.70
2017,01,12,03,22,-4.70
2017,01,12,03,23,-4.60
2017,01,12,03,24,-4.60
2017,01,12,03,25,-4.50
2017,01,12,03,26,-4.50
2017,01,12,03,27,-4.50
2017,01,12,03,28,-4.50
2017,01,12,03,29,-4.50
2017,01,12,03,30,-4.40
2017,01,12,03,31,-4.40
2017,01,12,03,32,-4.40
2017,01,12,03,33,-4.40
2017,01,12,03,34,-4.40
2017,01,12,03,35,-4.50
2017,01,12,03,36,-4.40
2017,01,12,03,37,-4.40
2017,01,12,03,38,-4.40
2017,01,12,03,39,-4.40
2017,01,12,03,40,-4.40
2017,01,12,03,41,-4.50
2017,01,12,03,42,-4.50
2017,01,12,03,43,-4.50
2017,01,12,03,44,-4.60
2017,01,12,03,45,-4.60
2017,01,12,03,46,-4.60
2017,01,12,03,47,-4.70
2017,01,12,03,48,-4.70
2017,01,12,03,49,-4.60
2017,01,12,03,50,-4.60
2017,01,12,03,51,-4.60
2017,01,12,03,52,-4.50
2017,01,12,03,53,-4.50
2017,01,12,03,54,-4.50
2017,01,12,03,55,-4.50
2017,01,12,03,56,-4.50
2017,01,12,03,57,-4.50
2017,01,12,03,58,-4.50
2017,01,12,03,59,-4.50
2017,01,12,04,00,-4.40
2017,01,12,04,01,-4.40
2017,01,12,04,02,-4.40
2017,01,12,04,03,-4.50
2017,01,12,04,04,-4.50
2017,01,12,04,05,-4.50
2017,01,12,04,06,-4.50
2017,01,12,04,07,-4.50
2017,01,12,04,08,-4.60
2017,01,12,04,09,-4.60
2017,01,12,04,10,-4.60
2017,01,12,04,11,-4.60
2017,01,12,04,12,-4.70
2017,01,12,04,13,-4.70
2017,01,12,04,14,-4.70
2017,01,12,04,15,-4.70
2017,01,12,04,16,-4.70
2017,01,12,04,17,-4.60
2017,01,12,04,18,-4.60
2017,01,12,04,19,-4.60
2017,01,12,04,20,-4.60
2017,01,12,04,21,-4.60
2017,01,12,04,22,-4.50
2017,01,12,04,23,-4.60
2017,01,12,04,24,-4.50
2017,01,12,04,25,-4.50
2017,01,12,04,26,-4.50
2017,01,12,04,27,-4.50
2017,01,12,04,28,-4.50
2017,01,12,04,29,-4.40
2017,01,12,04,30,-4.40
2017,01,12,04,31,-4.40
2017,01,12,04,32,-4.40
2017,01,12,04,33,-4.40
2017,01,12,04,34,-4.40
2017,01,12,04,35,-4.40
2017,01,12,04,36,-4.50
2017,01,12,04,37,-4.50
2017,01,12,04,38,-4.50
2017,01,12,04,39,-4.50
2017,01,12,04,40,-4.50
2017,01,12,04,41,-4.50
2017,01,12,04,42,-4.60
2017,01,12,04,43,-4.60
2017,01,12,04,44,-4.60
2017,01,12,04,45,-4.60
2017,01,12,04,46,-4.70
2017,01,12,04,47,-4.70
2017,01,12,04,48,-4.70
2017,01,12,04,49,-4.70
2017,01,12,04,50,-4.70
2017,01,12,04,51,-4.70
2017,01,12,04,52,-4.70
2017,01,12,04,53,-4.70
2017,01,12,04,54,-4.80
2017,01,12,04,55,-4.80
2017,01,12,04,56,-4.70
2017,01,12,04,57,-4.70
2017,01,12,04,58,-4.70
2017,01,12,04,59,-4.70
2017,01,12,05,00,-4.80
2017,01,12,05,01,-4.70
2017,01,12,05,02,-4.70
2017,01,12,05,03,-4.70
2017,01,12,05,04,-4.70
2017,01,12,05,05,-4.60
2017,01,12,05,06,-4.60
2017,01,12,05,07,-4.60
2017,01,12,05,08,-4.60
2017,01,12,05,09,-4.60
2017,01,12,05,10,-4.60
2017,01,12,05,11,-4.60
2017,01,12,05,12,-4.60
2017,01,12,05,13,-4.60
2017,01,12,05,14,-4.60
2017,01,12,05,15,-4.60
2017,01,12,05,16,-4.60
2017,01,12,05,17,-4.70
2017,01,12,05,18,-4.70
2017,01,12,05,19,-4.70
2017,01,12,05,20,-4.80
2017,01,12,05,21,-4.80
2017,01,12,05,22,-4.80
2017,01,12,05,23,-4.90
2017,01,12,05,24,-4.90
2017,01,12,05,25,-5.00
2017,01,12,05,26,-5.00
2017,01,12,05,27,-5.00
2017,01,12,05,28,-5.00
2017,01,12,05,29,-5.00
2017,01,12,05,30,-5.00
2017,01,12,05,31,-5.00
2017,01,12,05,32,-5.00
2017,01,12,05,33,-5.00
2017,01,12,05,34,-5.00
2017,01,12,05,35,-5.10
2017,01,12,05,36,-5.10
2017,01,12,05,37,-5.10
2017,01,12,05,38,-5.10
2017,01,12,05,39,-5.20
2017,01,12,05,40,-5.20
2017,01,12,05,41,-5.20
2017,01,12,05,42,-5.20
2017,01,12,05,43,-5.20
2017,01,12,05,44,-5.20
2017,01,12,05,45,-5.20
2017,01,12,05,46,-5.20
2017,01,12,05,47,-5.20
2017,01,12,05,48,-5.30
2017,01,12,05,49,-5.30
2017,01,12,05,50,-5.40
2017,01,12,05,51,-5.40
2017,01,12,05,52,-5.50
2017,01,12,05,53,-5.50
2017,01,12,05,54,-5.60
2017,01,12,05,55,-5.60
2017,01,12,05,56,-5.50
2017,01,12,05,57,-5.50
2017,01,12,05,58,-5.50
2017,01,12,05,59,-5.40
2017,01,12,06,00,-5.40
2017,01,12,06,01,-5.40
2017,01,12,06,02,-5.40
2017,01,12,06,03,-5.40
2017,01,12,06,04,-5.40
2017,01,12,06,05,-5.40
2017,01,12,06,06,-5.40
2017,01,12,06,07,-5.40
2017,01,12,06,08,-5.40
2017,01,12,06,09,-5.40
2017,01,12,06,10,-5.40
2017,01,12,06,11,-5.30
2017,01,12,06,12,-5.30
2017,01,12,06,13,-5.30
2017,01,12,06,14,-5.40
2017,01,12,06,15,-5.40
2017,01,12,06,16,-5.30
2017,01,12,06,17,-5.30
2017,01,12,06,18,-5.30
2017,01,12,06,19,-5.20
2017,01,12,06,20,-5.20
2017,01,12,06,21,-5.20
2017,01,12,06,22,-5.10
2017,01,12,06,23,-5.20
2017,01,12,06,24,-5.10
2017,01,12,06,25,-5.10
2017,01,12,06,26,-5.10
2017,01,12,06,27,-5.20
2017,01,12,06,28,-5.20
2017,01,12,06,29,-5.20
2017,01,12,06,30,-5.20
2017,01,12,06,31,-5.20
2017,01,12,06,32,-5.20
2017,01,12,06,33,-5.20
2017,01,12,06,34,-5.20
2017,01,12,06,35,-5.20
2017,01,12,06,36,-5.20
2017,01,12,06,37,-5.20
2017,01,12,06,38,-5.20
2017,01,12,06,39,-5.20
2017,01,12,06,40,-5.10
2017,01,12,06,41,-5.10
2017,01,12,06,42,-5.10
2017,01,12,06,43,-5.00
2017,01,12,06,44,-5.00
2017,01,12,06,45,-5.00
2017,01,12,06,46,-4.90
2017,01,12,06,47,-4.90
2017,01,12,06,48,-4.90
2017,01,12,06,49,-4.90
2017,01,12,06,50,-4.90
2017,01,12,06,51,-4.80
2017,01,12,06,52,-4.80
2017,01,12,06,53,-4.80
2017,01,12,06,54,-4.80
2017,01,12,06,55,-4.80
2017,01,12,06,56,-4.80
2017,01,12,06,57,-4.90
2017,01,12,06,58,-4.90
2017,01,12,06,59,-4.80
2017,01,12,07,00,-4.80
2017,01,12,07,01,-4.80
2017,01,12,07,02,-4.80
2017,01,12,07,03,-4.80
2017,01,12,07,04,-4.80
2017,01,12,07,05,-4.80
2017,01,12,07,06,-4.80
2017,01,12,07,07,-4.80
2017,01,12,07,08,-4.80
2017,01,12,07,09,-4.80
2017,01,12,07,10,-4.80
2017,01,12,07,11,-4.80
2017,01,12,07,12,-4.70
2017,01,12,07,13,-4.70
2017,01,12,07,14,-4.70
2017,01,12,07,15,-4.70
2017,01,12,07,16,-4.70
2017,01,12,07,17,-4.70
2017,01,12,07,18,-4.70
2017,01,12,07,19,-4.70
2017,01,12,07,20,-4.70
2017,01,12,07,21,-4.70
2017,01,12,07,22,-4.70
2017,01,12,07,23,-4.70
2017,01,12,07,24,-4.70
2017,01,12,07,25,-4.70
2017,01,12,07,26,-4.70
2017,01,12,07,27,-4.70
2017,01,12,07,28,-4.80
2017,01,12,07,29,-4.80
2017,01,12,07,30,-4.80
2017,01,12,07,31,-4.80
2017,01,12,07,32,-4.80
2017,01,12,07,33,-4.80
2017,01,12,07,34,-4.70
2017,01,12,07,35,-4.70
2017,01,12,07,36,-4.70
2017,01,12,07,37,-4.70
2017,01,12,07,38,-4.80
2017,01,12,07,39,-4.80
2017,01,12,07,40,-4.80
2017,01,12,07,41,-4.90
2017,01,12,07,42,-4.90
2017,01,12,07,43,-4.90
2017,01,12,07,44,-4.90
2017,01,12,07,45,-4.90
2017,01,12,07,46,-4.90
2017,01,12,07,47,-4.90
2017,01,12,07,48,-4.90
2017,01,12,07,49,-4.90
2017,01,12,07,50,-4.90
2017,01,12,07,51,-4.90
2017,01,12,07,52,-4.90
2017,01,12,07,53,-5.00
2017,01,12,07,54,-5.00
2017,01,12,07,55,-5.10
2017,01,12,07,56,-5.20
2017,01,12,07,57,-5.20
2017,01,12,07,58,-5.30
2017,01,12,07,59,-5.30
2017,01,12,08,00,-5.30
2017,01,12,08,01,-5.40
2017,01,12,08,02,-5.40
2017,01,12,08,03,-5.40
2017,01,12,08,04,-5.40
2017,01,12,08,05,-5.40
2017,01,12,08,06,-5.40
2017,01,12,08,07,-5.40
2017,01,12,08,08,-5.40
2017,01,12,08,09,-5.40
2017,01,12,08,10,-5.30
2017,01,12,08,11,-5.30
2017,01,12,08,12,-5.20
2017,01,12,08,13,-5.20
2017,01,12,08,14,-5.20
2017,01,12,08,15,-5.10
2017,01,12,08,16,-5.10
2017,01,12,08,17,-5.10
2017,01,12,08,18,-5.20
2017,01,12,08,19,-5.20
2017,01,12,08,20,-5.20
2017,01,12,08,21,-5.10
2017,01,12,08,22,-5.10
2017,01,12,08,23,-5.10
2017,01,12,08,24,-5.10
2017,01,12,08,25,-5.10
2017,01,12,08,26,-5.10
2017,01,12,08,27,-5.00
2017,01,12,08,28,-5.00
2017,01,12,08,29,-4.90
2017,01,12,08,30,-4.90
2017,01,12,08,31,-4.80
2017,01,12,08,32,-4.80
2017,01,12,08,33,-4.70
2017,01,12,08,34,-4.70
2017,01,12,08,35,-4.70
2017,01,12,08,36,-4.70
2017,01,12,08,37,-4.70
2017,01,12,08,38,-4.70
2017,01,12,08,39,-4.70
2017,01,12,08,40,-4.70
2017,01,12,08,41,-4.70
2017,01,12,08,42,-4.70
2017,01,12,08,43,-4.60
2017,01,12,08,44,-4.60
2017,01,12,08,45,-4.60
2017,01,12,08,46,-4.50
2017,01,12,08,47,-4.50
2017,01,12,08,48,-4.50
2017,01,12,08,49,-4.50
2017,01,12,08,50,-4.40
2017,01,12,08,51,-4.40
2017,01,12,08,52,-4.40
2017,01,12,08,53,-4.30
2017,01,12,08,54,-4.30
2017,01,12,08,55,-4.20
2017,01,12,08,56,-4.20
2017,01,12,08,57,-4.10
2017,01,12,08,58,-4.10
2017,01,12,08,59,-4.00
2017,01,12,09,00,-4.00
2017,01,12,09,01,-3.90
2017,01,12,09,02,-3.90
2017,01,12,09,03,-3.90
2017,01,12,09,04,-3.80
2017,01,12,09,05,-3.80
2017,01,12,09,06,-3.90
2017,01,12,09,07,-3.90
2017,01,12,09,08,-4.00
2017,01,12,09,09,-3.90
2017,01,12,09,10,-3.90
2017,01,12,09,11,-3.90
2017,01,12,09,12,-3.90
2017,01,12,09,13,-3.90
2017,01,12,09,14,-3.90
2017,01,12,09,15,-3.90
2017,01,12,09,16,-3.90
2017,01,12,09,17,-3.80
2017,01,12,09,18,-3.80
2017,01,12,09,19,-3.70
2017,01,12,09,20,-3.60
2017,01,12,09,21,-3.50
2017,01,12,09,22,-3.40
2017,01,12,09,23,-3.30
2017,01,12,09,24,-3.20
2017,01,12,09,25,-3.20
2017,01,12,09,26,-3.10
2017,01,12,09,27,-3.00
2017,01,12,09,28,-3.00
2017,01,12,09,29,-2.90
2017,01,12,09,30,-2.90
2017,01,12,09,31,-2.90
2017,01,12,09,32,-2.80
2017,01,12,09,33,-2.80
2017,01,12,09,34,-2.80
2017,01,12,09,35,-2.80
2017,01,12,09,36,-2.80
2017,01,12,09,37,-2.80
2017,01,12,09,38,-2.80
2017,01,12,09,39,-2.70
2017,01,12,09,40,-2.70
2017,01,12,09,41,-2.60
2017,01,12,09,42,-2.50
2017,01,12,09,43,-2.50
2017,01,12,09,44,-2.50
2017,01,12,09,45,-2.50
2017,01,12,09,46,-2.50
2017,01,12,09,47,-2.40
2017,01,12,09,48,-2.40
2017,01,12,09,49,-2.40
2017,01,12,09,50,-2.40
2017,01,12,09,51,-2.30
2017,01,12,09,52,-2.20
2017,01,12,09,53,-2.00
2017,01,12,09,54,-1.90
2017,01,12,09,55,-1.70
2017,01,12,09,56,-1.60
2017,01,12,09,57,-1.60
2017,01,12,09,58,-1.50
2017,01,12,09,59,-1.50
2017,01,12,10,00,-1.50
2017,01,12,10,01,-1.40
2017,01,12,10,02,-1.20
2017,01,12,10,03,-1.10
2017,01,12,10,04,-1.10
2017,01,12,10,05,-1.10
2017,01,12,10,06,-1.00
2017,01,12,10,07,-0.90
2017,01,12,10,08,-0.80
2017,01,12,10,09,-0.70
2017,01,12,10,10,-0.60
2017,01,12,10,11,-0.60
2017,01,12,10,12,-0.50
2017,01,12,10,13,-0.40
2017,01,12,10,14,-0.40
2017,01,12,10,15,-0.30
2017,01,12,10,16,-0.20
2017,01,12,10,17,-0.20
2017,01,12,10,18,-0.20
2017,01,12,10,19,-0.10
2017,01,12,10,20,-0.10
2017,01,12,10,21,-0.10
2017,01,12,10,22,-0.10
2017,01,12,10,23,-0.10
2017,01,12,10,24,-0.10
2017,01,12,10,25,-0.10
2017,01,12,10,26,-0.10
2017,01,12,10,27,-0.10
2017,01,12,10,28,-0.10
2017,01,12,10,29,-0.20
2017,01,12,10,30,-0.20
2017,01,12,10,31,-0.20
2017,01,12,10,32,-0.20
2017,01,12,10,33,-0.20
2017,01,12,10,34,-0.20
2017,01,12,10,35,-0.20
2017,01,12,10,36,-0.20
2017,01,12,10,37,-0.20
2017,01,12,10,38,-0.20
2017,01,12,10,39,-0.20
2017,01,12,10,40,-0.20
2017,01,12,10,41,-0.20
2017,01,12,10,42,-0.20
2017,01,12,10,43,-0.20
2017,01,12,10,44,-0.30
2017,01,12,10,45,-0.30
2017,01,12,10,46,-0.20
2017,01,12,10,47,-0.20
2017,01,12,10,48,-0.20
2017,01,12,10,49,-0.20
2017,01,12,10,50,-0.10
2017,01,12,10,51,-0.10
2017,01,12,10,52,0.00
2017,01,12,10,53,0.00
2017,01,12,10,54,0.00
2017,01,12,10,55,0.10
2017,01,12,10,56,0.10
2017,01,12,10,57,0.20
2017,01,12,10,58,0.20
2017,01,12,10,59,0.30
2017,01,12,11,00,0.30
2017,01,12,11,01,0.30
2017,01,12,11,02,0.30
2017,01,12,11,03,0.30
2017,01,12,11,04,0.30
2017,01,12,11,05,0.20
2017,01,12,11,06,0.20
2017,01,12,11,07,0.10
2017,01,12,11,08,0.10
2017,01,12,11,09,0.10
2017,01,12,11,10,0.10
2017,01,12,11,11,0.10
2017,01,12,11,12,0.10
2017,01,12,11,13,0.10
2017,01,12,11,14,0.10
2017,01,12,11,15,0.10
2017,01,12,11,16,0.10
2017,01,12,11,17,0.20
2017,01,12,11,18,0.20
2017,01,12,11,19,0.20
2017,01,12,11,20,0.20
2017,01,12,11,21,0.30
2017,01,12,11,22,0.30
2017,01,12,11,23,0.30
2017,01,12,11,24,0.30
2017,01,12,11,25,0.30
2017,01,12,11,26,0.30
2017,01,12,11,27,0.30
2017,01,12,11,28,0.20
2017,01,12,11,29,0.20
2017,01,12,11,30,0.20
2017,01,12,11,31,0.20
2017,01,12,11,32,0.10
2017,01,12,11,33,0.10
2017,01,12,11,34,0.10
2017,01,12,11,35,0.10
2017,01,12,11,36,0.10
2017,01,12,11,37,0.10
2017,01,12,11,38,0.10
2017,01,12,11,39,0.10
2017,01,12,11,40,0.20
2017,01,12,11,41,0.20
2017,01,12,11,42,0.20
2017,01,12,11,43,0.20
2017,01,12,11,44,0.30
2017,01,12,11,45,0.30
2017,01,12,11,46,0.30
2017,01,12,11,47,0.40
2017,01,12,11,48,0.30
2017,01,12,11,49,0.30
2017,01,12,11,50,0.30
2017,01,12,11,51,0.30
2017,01,12,11,52,0.30
2017,01,12,11,53,0.30
2017,01,12,11,54,0.30
2017,01,12,11,55,0.30
2017,01,12,11,56,0.40
2017,01,12,11,57,0.40
2017,01,12,11,58,0.40
2017,01,12,11,59,0.30
2017,01,12,12,00,0.40
2017,01,12,12,01,0.40
2017,01,12,12,02,0.40
2017,01,12,12,03,0.40
2017,01,12,12,04,0.40
2017,01,12,12,05,0.40
2017,01,12,12,06,0.50
2017,01,12,12,07,0.50
2017,01,12,12,08,0.50
2017,01,12,12,09,0.50
2017,01,12,12,10,0.50
2017,01,12,12,11,0.50
2017,01,12,12,12,0.50
2017,01,12,12,13,0.50
2017,01,12,12,14,0.50
2017,01,12,12,15,0.50
2017,01,12,12,16,0.50
2017,01,12,12,17,0.50
2017,01,12,12,18,0.50
2017,01,12,12,19,0.60
2017,01,12,12,20,0.70
2017,01,12,12,21,0.70
2017,01,12,12,22,0.70
2017,01,12,12,23,0.70
2017,01,12,12,24,0.70
2017,01,12,12,25,0.70
2017,01,12,12,26,0.70
2017,01,12,12,27,0.80
2017,01,12,12,28,0.70
2017,01,12,12,29,0.70
2017,01,12,12,30,0.60
2017,01,12,12,31,0.70
2017,01,12,12,32,0.70
2017,01,12,12,33,0.80
2017,01,12,12,34,0.90
2017,01,12,12,35,0.90
2017,01,12,12,36,1.00
2017,01,12,12,37,1.00
2017,01,12,12,38,1.10
2017,01,12,12,39,1.20
2017,01,12,12,40,1.20
2017,01,12,12,41,1.20
2017,01,12,12,42,1.20
2017,01,12,12,43,1.20
2017,01,12,12,44,1.20
2017,01,12,12,45,1.10
2017,01,12,12,46,1.10
2017,01,12,12,47,1.00
2017,01,12,12,48,1.00
2017,01,12,12,49,1.00
2017,01,12,12,50,1.10
2017,01,12,12,51,1.10
2017,01,12,12,52,1.10
2017,01,12,12,53,1.10
2017,01,12,12,54,1.10
2017,01,12,12,55,1.10
2017,01,12,12,56,1.10
2017,01,12,12,57,1.10
2017,01,12,12,58,1.20
2017,01,12,12,59,1.30
2017,01,12,13,00,1.30
2017,01,12,13,01,1.30
2017,01,12,13,02,1.30
2017,01,12,13,03,1.40
2017,01,12,13,04,1.50
2017,01,12,13,05,1.50
2017,01,12,13,06,1.50
2017,01,12,13,07,1.50
2017,01,12,13,08,1.40
2017,01,12,13,09,1.40
2017,01,12,13,10,1.40
2017,01,12,13,11,1.40
2017,01,12,13,12,1.40
2017,01,12,13,13,1.50
2017,01,12,13,14,1.60
2017,01,12,13,15,1.60
2017,01,12,13,16,1.70
2017,01,12,13,17,1.60
2017,01,12,13,18,1.60
2017,01,12,13,19,1.60
2017,01,12,13,20,1.60
2017,01,12,13,21,1.70
2017,01,12,13,22,1.70
2017,01,12,13,23,1.80
2017,01,12,13,24,1.80
2017,01,12,13,25,1.80
2017,01,12,13,26,1.80
2017,01,12,13,27,1.80
2017,01,12,13,28,1.80
2017,01,12,13,29,1.90
2017,01,12,13,30,1.80
2017,01,12,13,31,1.80
2017,01,12,13,32,1.70
2017,01,12,13,33,1.70
2017,01,12,13,34,1.70
2017,01,12,13,35,1.80
2017,01,12,13,36,1.80
2017,01,12,13,37,1.80
2017,01,12,13,38,1.90
2017,01,12,13,39,1.80
2017,01,12,13,40,1.70
2017,01,12,13,41,1.70
2017,01,12,13,42,1.70
2017,01,12,13,43,1.70
2017,01,12,13,44,1.70
2017,01,12,13,45,1.80
2017,01,12,13,46,1.80
2017,01,12,13,47,1.90
2017,01,12,13,48,1.90
2017,01,12,13,49,2.00
2017,01,12,13,50,2.00
2017,01,12,13,51,2.10
2017,01,12,13,52,2.10
2017,01,12,13,53,2.10
2017,01,12,13,54,2.10
2017,01,12,13,55,2.10
2017,01,12,13,56,2.10
2017,01,12,13,57,2.10
2017,01,12,13,58,2.10
2017,01,12,13,59,2.00
2017,01,12,14,00,2.00
2017,01,12,14,01,1.90
2017,01,12,14,02,1.90
2017,01,12,14,03,1.80
2017,01,12,14,04,1.80
2017,01,12,14,05,1.80
2017,01,12,14,06,1.80
2017,01,12,14,07,1.80
2017,01,12,14,08,1.70
2017,01,12,14,09,1.80
2017,01,12,14,10,1.80
2017,01,12,14,11,1.80
2017,01,12,14,12,1.90
2017,01,12,14,13,1.90
2017,01,12,14,14,1.90
2017,01,12,14,15,1.90
2017,01,12,14,16,1.90
2017,01,12,14,17,1.90
2017,01,12,14,18,1.90
2017,01,12,14,19,1.80
2017,01,12,14,20,1.80
2017,01,12,14,21,1.70
2017,01,12,14,22,1.60
2017,01,12,14,23,1.50
2017,01,12,14,24,1.50
2017,01,12,14,25,1.40
2017,01,12,14,26,1.30
2017,01,12,14,27,1.30
2017,01,12,14,28,1.30
2017,01,12,14,29,1.30
2017,01,12,14,30,1.30
2017,01,12,14,31,1.30
2017,01,12,14,32,1.30
2017,01,12,14,33,1.30
2017,01,12,14,34,1.30
2017,01,12,14,35,1.30
2017,01,12,14,36,1.30
2017,01,12,14,37,1.30
2017,01,12,14,38,1.20
2017,01,12,14,39,1.20
2017,01,12,14,40,1.20
2017,01,12,14,41,1.20
2017,01,12,14,42,1.20
2017,01,12,14,43,1.30
2017,01,12,14,44,1.30
2017,01,12,14,45,1.30
2017,01,12,14,46,1.30
2017,01,12,14,47,1.30
2017,01,12,14,48,1.30
2017,01,12,14,49,1.30
2017,01,12,14,50,1.30
2017,01,12,14,51,1.20
2017,01,12,14,52,1.20
2017,01,12,14,53,1.20
2017,01,12,14,54,1.20
2017,01,12,14,55,1.20
2017,01,12,14,56,1.20
2017,01,12,14,57,1.20
2017,01,12,14,58,1.20
2017,01,12,14,59,1.20
2017,01,12,15,00,1.20
2017,01,12,15,01,1.20
2017,01,12,15,02,1.20
2017,01,12,15,03,1.20
2017,01,12,15,04,1.20
2017,01,12,15,05,1.20
2017,01,12,15,06,1.20
2017,01,12,15,07,1.20
2017,01,12,15,08,1.20
2017,01,12,15,09,1.20
2017,01,12,15,10,1.20
2017,01,12,15,11,1.20
2017,01,12,15,12,1.20
2017,01,12,15,13,1.20
2017,01,12,15,14,1.20
2017,01,12,15,15,1.20
2017,01,12,15,16,1.20
2017,01,12,15,17,1.20
2017,01,12,15,18,1.20
2017,01,12,15,19,1.20
2017,01,12,15,20,1.20
2017,01,12,15,21,1.20
2017,01,12,15,22,1.20
2017,01,12,15,23,1.20
2017,01,12,15,24,1.20
2017,01,12,15,25,1.20
2017,01,12,15,26,1.20
2017,01,12,15,27,1.20
2017,01,12,15,28,1.20
2017,01,12,15,29,1.20
2017,01,12,15,30,1.20
2017,01,12,15,31,1.20
2017,01,12,15,32,1.20
2017,01,12,15,33,1.20
2017,01,12,15,34,1.20
2017,01,12,15,35,1.20
2017,01,12,15,36,1.20
2017,01,12,15,37,1.20
2017,01,12,15,38,1.20
2017,01,12,15,39,1.20
2017,01,12,15,40,1.30
2017,01,12,15,41,1.30
2017,01,12,15,42,1.30
2017,01,12,15,43,1.20
2017,01,12,15,44,1.20
2017,01,12,15,45,1.20
2017,01,12,15,46,1.20
2017,01,12,15,47,1.10
2017,01,12,15,48,1.10
2017,01,12,15,49,1.10
2017,01,12,15,50,1.10
2017,01,12,15,51,1.10
2017,01,12,15,52,1.10
2017,01,12,15,53,1.10
2017,01,12,15,54,1.10
2017,01,12,15,55,1.10
2017,01,12,15,56,1.10
2017,01,12,15,57,1.10
2017,01,12,15,58,1.10
2017,01,12,15,59,1.10
2017,01,12,16,00,1.10
2017,01,12,16,01,1.10
2017,01,12,16,02,1.20
2017,01,12,16,03,1.20
2017,01,12,16,04,1.20
2017,01,12,16,05,1.20
2017,01,12,16,06,1.20
2017,01,12,16,07,1.20
2017,01,12,16,08,1.20
2017,01,12,16,09,1.20
2017,01,12,16,10,1.20
2017,01,12,16,11,1.10
2017,01,12,16,12,1.10
2017,01,12,16,13,1.10
2017,01,12,16,14,1.10
2017,01,12,16,15,1.10
2017,01,12,16,16,1.10
2017,01,12,16,17,1.10
2017,01,12,16,18,1.00
2017,01,12,16,19,1.00
2017,01,12,16,20,1.00
2017,01,12,16,21,0.90
2017,01,12,16,22,0.90
2017,01,12,16,23,0.90
2017,01,12,16,24,0.90
2017,01,12,16,25,0.90
2017,01,12,16,26,0.80
2017,01,12,16,27,0.80
2017,01,12,16,28,0.80
2017,01,12,16,29,0.80
2017,01,12,16,30,0.80
2017,01,12,16,31,0.80
2017,01,12,16,32,0.80
2017,01,12,16,33,0.70
2017,01,12,16,34,0.70
2017,01,12,16,35,0.70
2017,01,12,16,36,0.70
2017,01,12,16,37,0.70
2017,01,12,16,38,0.70
2017,01,12,16,39,0.60
2017,01,12,16,40,0.50
2017,01,12,16,41,0.50
2017,01,12,16,42,0.40
2017,01,12,16,43,0.30
2017,01,12,16,44,0.20
2017,01,12,16,45,0.20
2017,01,12,16,46,0.10
2017,01,12,16,47,0.00
2017,01,12,16,48,-0.10
2017,01,12,16,49,-0.10
2017,01,12,16,50,-0.10
2017,01,12,16,51,-0.20
2017,01,12,16,52,-0.20
2017,01,12,16,53,-0.20
2017,01,12,16,54,-0.20
2017,01,12,16,55,-0.20
2017,01,12,16,56,-0.20
2017,01,12,16,57,-0.20
2017,01,12,16,58,-0.20
2017,01,12,16,59,-0.30
2017,01,12,17,00,-0.30
2017,01,12,17,01,-0.40
2017,01,12,17,02,-0.40
2017,01,12,17,03,-0.40
2017,01,12,17,04,-0.50
2017,01,12,17,05,-0.50
2017,01,12,17,06,-0.60
2017,01,12,17,07,-0.60
2017,01,12,17,08,-0.70
2017,01,12,17,09,-0.70
2017,01,12,17,10,-0.80
2017,01,12,17,11,-0.80
2017,01,12,17,12,-0.90
2017,01,12,17,13,-0.90
2017,01,12,17,14,-1.00
2017,01,12,17,15,-1.10
2017,01,12,17,16,-1.10
2017,01,12,17,17,-1.10
2017,01,12,17,18,-1.10
2017,01,12,17,19,-1.20
2017,01,12,17,20,-1.20
2017,01,12,17,21,-1.20
2017,01,12,17,22,-1.20
2017,01,12,17,23,-1.30
2017,01,12,17,24,-1.30
2017,01,12,17,25,-1.30
2017,01,12,17,26,-1.30
2017,01,12,17,27,-1.30
2017,01,12,17,28,-1.30
2017,01,12,17,29,-1.30
2017,01,12,17,30,-1.30
2017,01,12,17,31,-1.40
2017,01,12,17,32,-1.40
2017,01,12,17,33,-1.40
2017,01,12,17,34,-1.40